Torna al catalogo

SPOT 6

AttivoScienzaSSO
NORAD 38755·PAYLOAD·🇫🇷 France

Lanciato Sep 9, 2012 da Satish Dhawan Space Centre

Loading…

Prossimi Passaggi (prossime 24 ore)

TLE

AggiornatoSource: Space-Track

Epoca: Sep 14, 2026, 15:42 UTC

1 38755U 12047A   26257.65477061  .00000147  00000-0  41489-4 0  9992
2 38755  98.2041 323.8781 0001615  85.8775 274.2609 14.58562644746090

Traccia SPOT 6 in tempo reale con AllMySat

Download on the App Store